Sign Up for Free

Track your rides and runs via your iPhone, Android or GPS device, analyze your performance, and compare with friends.

Pope - Bellevue - Southhill (from mission)

Ride Segment San Francisco, CA
  • 1.8km
    Distance
  • 8%
    Avg Grade
  • 57m
    Lowest Elev
  • 193m
    Highest Elev
  • 137m
    Elev Difference
  • Climb Category
    220 Attempts By 42 People

Men's Leaderboard

Rank Name Speed Power VAM Time
1 Bret Lobree 18.5km/h 325W - 1433 5:43
2 Brooks S. 17.1km/h 315W Powermeter 1325 6:11
3 Chris Z. 16.8km/h 276W - 1300 6:18
4 Chris D. 16.3km/h 310W - 1260 6:30
5 Christon DeWan 15.9km/h 319W - 1232 6:39
6 Chris Kurrle 15.9km/h 280W Powermeter 1225 6:41
7 Scott Rossi 15.2km/h 284W Powermeter 1173 6:59
8 Beckett Madden-Woods 14.5km/h 231W - 1122 7:18
9 james van zoeren 14.4km/h 296W - 1114 7:21
10 Ryan Minobe 13.8km/h 282W - 1066 7:41
11 Chris Gaither 13.7km/h 248W - 1061 7:43
12 Ethan Atkins 13.6km/h 272W Powermeter 1052 7:47
13 Dave Borowitz 13.2km/h 272W - 1020 8:02
14 Aaron N. 13.2km/h 264W - 1017 8:03
15 Peter Rigano 13.1km/h 256W - 1015 8:04
16 Devon Proctor 12.9km/h 277W - 995 8:14
17 Viet-Trung Luu 12.6km/h 239W - 977 8:23
18 Michael McCabe 12.6km/h 232W - 971 8:26
19 Elliott Nolan 12.5km/h 236W - 969 8:27
20 James Bender 12.4km/h 274W Powermeter 958 8:33

Join Strava to see the full leaderboard

Women's Leaderboard

Rank Name Speed Power VAM Time
1 Katie Evans 13.8km/h 259W - 1064 7:42
2 Amy Padula 10.6km/h 163W - 815 10:03
3 Ada Wong 10.2km/h 791 10:21
4 Sf V. 9.9km/h 160W - 764 10:43